Regional Weather Roundup
Issued by NWS

Home | Current Version | Previous Version | Text Only | Print | Product List | Glossary On
Versions: 1 2 3 4 5 6 7 8 9 10 11 12 13 14 15 16 17 18 19 20 21 22 23 24 25 26 27 28 29 30 31 32 33 34 35 36 37 38 39 40 41 42 43 44 45 46 47 48 49 50
000
ASUS43 KLOT 251412
RWRIL

ILLINOIS REGIONAL WEATHER ROUNDUP
NATIONAL WEATHER SERVICE CHICAGO/ROMEOVILLE IL
800 AM CST SAT FEB 25 2017

NOTE: "FAIR" INDICATES FEW OR NO CLOUDS BELOW 12,000 FEET WITH NO
SIGNIFICANT WEATHER AND/OR OBSTRUCTIONS TO VISIBILITY.

* THESE STATIONS ARE NOT UNDER NWS QUALITY CONTROL. THEY ALSO MAY NOT
  REPORT WEATHER SUCH AS PRECIPITATION OR FOG.

ILZ001-002-007-009-015-016-024-251500-
NORTHWEST ILLINOIS

CITY           SKY/WX    TMP DP  RH WIND       PRES   REMARKS
MOLINE         SUNNY     22  12  65 W16G25    29.92R WCI   8
STERLING*      CLOUDY    22  15  75 W17       29.87R WCI   8
$$

ILZ003-004-008-010-011-017-018-251500-
NORTH CENTRAL ILLINOIS

CITY           SKY/WX    TMP DP  RH WIND       PRES   REMARKS
ROCKFORD       PTSUNNY   21  14  74 W14       29.83R WCI   8
FREEPORT*      CLOUDY    20  15  79 W13G18    29.84R WCI   7
ROCHELLE*      CLOUDY    21  17  84 W17       29.83R FOG     WCI   6
DE KALB*       CLOUDY    21  16  83 W18G24    29.80R WCI   6
PERU*          PTSUNNY   21  16  80 W15G22    29.87R WCI   7
$$

ILZ005-006-012>014-019>023-251500-
NORTHEAST ILLINOIS

CITY           SKY/WX    TMP DP  RH WIND       PRES   REMARKS
CHICAGO-OHARE  FLURRIES  23  14  68 NW18      29.77R WCI   9
CHICAGO-MIDWAY FLURRIES  23  12  62 W23       29.78R WCI   7
AURORA         CLOUDY    22  16  78 W17G25    29.81R WCI   8
LANSING*       CLOUDY    24  18  76 W23       29.78R WCI   9
JOLIET*        FLURRIES  24  16  70 W14G21    29.82R WCI  12
WAUKEGAN       PTSUNNY   21  14  74 NW13G20   29.74R WCI   9
DUPAGE AIRPORT LGT SNOW  21  13  71 NW16      29.78R WCI   7
KANKAKEE*      CLOUDY    24  16  71 W16G24    29.83R WCI  10
WHEELING       CLOUDY    21  13  71 W16       29.78R WCI   7
MORRIS*        FLURRIES  23  16  73 NW17G25   29.83R WCI   9
ROMEOVILLE*    CLOUDY    22  18  83 NW20G28   29.81R WCI   7
NORTHERLY ISL    N/A     24  15  68 W12         N/A  WCI  13
$$

LMZ740>746-251500-
SOUTHERN LAKE MICHIGAN

STATION/POSITION SKY/WX   TEMP    WIND        PRES    VSBY  WAVE
                          AIR SEA DIR/SP/G                  HT/PER
                          (F)     (DEG/KT/KT) (MB)    (MI)  (FT/S)
HARRISON CRIB              23     300/ 23/ 25   N/A
BURNHAM HARBOR             23     280/ 16/ 19   N/A
CALUMET HARBOR             24     270/  9/ 16 1007.6R
BURNS HARBOR               27     270/ 22/ 26 1007.8R
MICHIGAN CITY              26     260/ 31/ 33   N/A
$$

ILZ025>027-034>036-040-047-049-050-058-095>099-251500-
WEST-CENTRAL ILLINOIS

CITY           SKY/WX    TMP DP  RH WIND       PRES   REMARKS
QUINCY         MOSUNNY   22  15  75 NW16      30.01R WCI   8
GALESBURG*     SUNNY     20  14  77 W14G24    29.94R WCI   7
MACOMB*        SUNNY     22  16  77 NW21      29.99R WCI   6
JACKSONVILLE*  MOSUNNY   24  15  67 W16G25    29.99R WCI  11
PITTSFIELD*    MOSUNNY   25  15  68 W12G23    30.03R WCI  14
$$

ILZ028>032-037-038-041>044-048-051>054-059>061-251500-
CENTRAL ILLINOIS

CITY           SKY/WX    TMP DP  RH WIND       PRES   REMARKS
PONTIAC        LGT SNOW  24  19  80 NW25G31   29.87R WCI   8
BLOOMINGTON    LGT SNOW  23  17  78 NW21      29.89R WCI   8
DECATUR        LGT SNOW  24  18  77 NW15G25   29.93R WCI  11
PEORIA         CLOUDY    23  14  68 NW13G23   29.93R WCI  11
LACON*         PTSUNNY   24  16  71 W15G21    29.90R WCI  11
LINCOLN*       LGT SNOW  25  19  77 W9G21     29.94R WCI  16
SPRINGFIELD    CLOUDY    26  16  65 W17G28    29.96R WCI  13
TAYLORVILLE    CLOUDY    26  16  65 W21       29.97R WCI  11
$$

ILZ033-039-045-046-055>057-062-063-251500-
EAST-CENTRAL ILLINOIS

CITY           SKY/WX    TMP DP  RH WIND       PRES   REMARKS
CHAMPAIGN      LGT SNOW  24  17  74 W25G33    29.89R WCI   8
RANTOUL*       FLURRIES  26  19  77 W25G35    29.87R WCI  10
MATTOON        CLOUDY    25  16  68 NW24G33   29.92R WCI   9
PARIS*         FLURRIES  26  19  75 W29G35    29.91R WCI  10
$$

ILZ079-100>102-251500-
SOUTHWEST ILLINOIS

CITY           SKY/WX    TMP DP  RH WIND       PRES   REMARKS
ALTON          PTSUNNY   27  14  59 NW17G25   30.01R WCI  14
BELLEVILLE     MOSUNNY   30  15  52 W10G24    30.01R WCI  21
CAHOKIA*       CLOUDY    30  14  51 NW16      30.04R WCI  19
SPARTA*        CLOUDY    30  17  60 W16G24    30.03R WCI  18
$$

ILZ064>066-069>071-074>076-080>082-084>086-088>090-092>094-251500-
SOUTH-CENTRAL ILLINOIS

CITY           SKY/WX    TMP DP  RH WIND       PRES   REMARKS
CARBONDALE     CLOUDY    30  18  60 W13       30.03R WCI  20
CAIRO*         MOSUNNY   32  20  60 NW13      30.06R WCI  22
EFFINGHAM*     FLURRIES  29  22  74 W17G23    29.97R WCI  17
MARION         CLOUDY    32  19  59 W9G22     30.03R WCI  24
MT. VERNON     FLURRIES  29  20  69 W10G21    30.01R WCI  20
CENTRALIA*     CLOUDY    30  22  71 W14       29.99R WCI  20
SALEM*         FLURRIES  31  19  60 W17G24    29.98R WCI  20
METROPOLIS*    CLOUDY    33  19  56 NW8G18    30.04R WCI  26
$$

ILZ067-068-072-073-078-083-087-091-251500-
SOUTHEAST ILLINOIS

CITY           SKY/WX    TMP DP  RH WIND       PRES   REMARKS
LAWRENCEVILLE  FLURRIES  30  20  66 W25G33    29.95R WCI  16
FLORA*         FLURRIES  31  20  62 W14G21    29.98R WCI  21
FAIRFIELD*     CLOUDY    30  20  65 W8        29.99R WCI  22
HARRISBURG*    CLOUDY    31  22  67 NW15G22   30.02R WCI  21
ROBINSON*      LGT SNOW  28  22  77 W18G24    29.95R WCI  16
CARMI*         FLURRIES  31  22  70 NW18G24   30.00R WCI  19
$$

ABBREVIATIONS USED IN REMARKS
   TC - TEMPERATURE IN CELSIUS
  WCI - WIND CHILL INDEX
   HX - HEAT INDEX
  VSB - VISIBILITY
$$




USA.gov is the U.S. government's official web portal to all federal, state and local government web resources and services.